Regional Weather Roundup
Issued by NWS

Home | Current Version | Previous Version | Graphics & Text | Print | Product List | Glossary On
Versions: 1 2 3 4 5 6 7 8 9 10 11 12 13 14 15 16 17 18 19 20 21 22 23 24 25 26 27 28 29 30 31 32 33 34 35 36 37 38 39 40 41 42 43 44 45 46 47 48 49 50
000
ASUS45 KCYS 290610
RWRWY

WYOMING REGIONAL WEATHER ROUNDUP
NATIONAL WEATHER SERVICE CHEYENNE WY
1200 AM MDT MON SEP 29 2014

NOTE:  "FAIR" INDICATES FEW OR NO CLOUDS BELOW 12,000 FEET
WITH NO SIGNIFICANT WEATHER AND/OR OBSTRUCTIONS TO VISIBILITY.

WYZ001-290700-
YELLOWSTONE NATIONAL PARK

CITY           SKY/WX    TMP DP  RH WIND       PRES   REMARKS
LK YELLOWSTONE   N/A     38  35  89 NW5       30.16R WCI  34
6HR MIN TEMP:  38; 6HR MAX TEMP:  49;

W YELLOWSTONE  NOT AVBL

$$
WYZ002>013-054>058-071-098>099-290700-
NORTHERN WYOMING

CITY           SKY/WX    TMP DP  RH WIND       PRES   REMARKS
JACKSON        MOCLDY    39  39 100 CALM      30.11F
CODY           CLOUDY    43  43 100 E3        30.11F
GREYBULL       CLOUDY    49  47  93 NW3       30.09F
6HR MIN TEMP:  48; 6HR MAX TEMP:  50; 6HR PCP:  0.03;

WORLAND        CLOUDY    48  45  89 N5        30.10F
6HR MIN TEMP:  48; 6HR MAX TEMP:  49; 6HR PCP:  0.01;

SHERIDAN       CLOUDY    48  47  96 NE6       30.12F
6HR MIN TEMP:  48; 6HR MAX TEMP:  49;

BUFFALO        FOG       46  45  96 CALM      30.15S VSB 1
6HR MIN TEMP:  45; 6HR MAX TEMP:  47; 6HR PCP:  0.01;

GILLETTE       LGT RAIN  48  46  93 NE8       30.12F
6HR MIN TEMP:  47; 6HR MAX TEMP:  50; 6HR PCP:  0.04;

HULETT         CLOUDY    48  46  93 E8        30.15
NEWCASTLE      RAIN      50  50 100 S6        30.14

$$
WYZ014>020-022>026-101>103-290700-
CENTRAL WYOMING

CITY           SKY/WX    TMP DP  RH WIND       PRES   REMARKS
BIG PINEY      CLOUDY    45  43  93 NE5       30.12R
6HR MIN TEMP:  44; 6HR MAX TEMP:  48;

PINEDALE       CLOUDY    41  41 100 NW5       30.14R
DUBOIS         CLOUDY    41  39  93 SE6       30.14F
LANDER         CLOUDY    46  46 100 NW6       30.10F
6HR MIN TEMP:  47; 6HR MAX TEMP:  47; 6HR PCP:  0.04;

RIVERTON       CLOUDY    45  44  97 E7        30.12R
6HR MIN TEMP:  45; 6HR MAX TEMP:  48;

CASPER         CLOUDY    46  44  93 NE10      30.08F
6HR MIN TEMP:  45; 6HR MAX TEMP:  46; 6HR PCP:  0.10;

DOUGLAS        CLOUDY    49  47  93 SE6       30.12F
6HR MIN TEMP:  50; 6HR MAX TEMP:  59; 6HR PCP:  0.17;


$$
WYZ021-027>030-104>119-290700-
SOUTHERN WYOMING

CITY           SKY/WX    TMP DP  RH WIND       PRES   REMARKS
EVANSTON       CLOUDY    44  41  89 E7        30.08F
6HR MIN TEMP:  43; 6HR MAX TEMP:  48; 6HR PCP: TRACE;

KEMMERER       CLOUDY    43  37  81 CALM      30.09F
FORT BRIDGER     N/A     45  42  88 SW9       30.11F THUNDER
ROCK SPRINGS   CLOUDY    47  40  76 E13       30.09F
6HR MIN TEMP:  47; 6HR MAX TEMP:  54; 6HR PCP: TRACE;

DIXON          CLOUDY    46  44  93 NE10      30.16F
RAWLINS        RAIN      47  45  93 CALM      30.12R FOG
6HR MIN TEMP:  46; 6HR MAX TEMP:  49; 6HR PCP:  0.13;

SARATOGA         N/A     45  41  87 SW26G38   30.17R
LARAMIE        CLOUDY    48  46  93 E12       30.11F
6HR MIN TEMP:  46; 6HR MAX TEMP:  48; 6HR PCP:  0.02;

CHEYENNE       FOG       47  47 100 NE10      30.11F VSB 1/4
6HR MIN TEMP:  47; 6HR MAX TEMP:  59; 6HR PCP:  0.50;

TORRINGTON     CLOUDY    51  49  92 NE9       30.07F
6HR MIN TEMP:  51; 6HR MAX TEMP:  56; 6HR PCP:  0.39;

PINE BLUFFS    CLOUDY    50  50 100 NE13      30.08S

$$


USA.gov is the U.S. government's official web portal to all federal, state and local government web resources and services.